GW1838 Weather Reports


Display with metric or nautical units.
time (UTC)temp
F
wind
direction
speed
MPH
gust
MPH
rain 1hr
in
rain 24hr
in
rain mn
in
humidity
%
barometer
mb
20260508235806 56 216 7.0 14.0 0.00 0.00 0.00 71 1011.3
20260508234306 56 206 10.0 20.0 0.00 0.00 0.00 69 1011.2
20260508233806 56 210 10.0 17.0 0.00 0.00 0.00 68 1011.2
20260508232805 56 221 9.0 16.0 0.00 0.00 0.00 67 1011.1
20260508232307 56 207 13.0 20.0 0.00 0.00 0.00 67 1011.1
20260508225307 57 206 13.0 22.0 0.00 0.00 0.00 63 1010.8
20260508215805 56 194 13.0 24.0 0.00 0.00 0.00 67 1010.8
20260508213306 57 200 13.0 22.0 0.00 0.00 0.00 65 1010.7
20260508212306 56 194 10.0 23.0 0.00 0.00 0.00 64 1010.8
20260508211306 57 210 11.0 20.0 0.00 0.00 0.00 64 1010.7
20260508210306 56 196 12.0 22.0 0.00 0.00 0.00 63 1010.6
20260508204805 56 203 14.0 26.0 0.00 0.00 0.00 63 1010.7
20260508204307 56 211 14.0 18.0 0.00 0.00 0.00 63 1010.8
20260508203306 56 189 14.0 21.0 0.00 0.00 0.00 66 1010.7
20260508202805 56 188 11.0 24.0 0.00 0.00 0.00 64 1010.7
20260508200806 56 194 12.0 18.0 0.00 0.00 0.00 72 1010.6
20260508193805 56 197 13.0 20.0 0.00 0.00 0.00 72 1010.9
20260508193305 56 179 14.0 24.0 0.00 0.00 0.00 71 1010.8
20260508192306 56 183 12.0 20.0 0.00 0.00 0.00 71 1010.9
20260508191306 56 185 12.0 20.0 0.00 0.00 0.00 69 1011.0
20260508190806 57 186 13.0 23.0 0.00 0.00 0.00 68 1011.1
20260508185306 56 183 9.0 14.0 0.00 0.00 0.00 69 1011.5
20260508184806 56 202 10.0 21.0 0.00 0.00 0.00 68 1011.6
20260508183305 56 186 10.0 20.0 0.00 0.00 0.00 69 1011.6
20260508182307 57 190 10.0 23.0 0.00 0.00 0.00 65 1011.7
20260508181305 57 184 12.0 18.0 0.00 0.00 0.00 65 1011.7
20260508180805 57 193 10.0 20.0 0.00 0.00 0.00 64 1011.6
20260508180305 57 192 10.0 16.0 0.00 0.00 0.00 65 1011.7
20260508175306 58 196 12.0 20.0 0.00 0.00 0.00 66 1011.7
20260508172806 58 193 12.0 17.0 0.00 0.00 0.00 62 1012.0
20260508172308 57 202 15.0 22.0 0.00 0.00 0.00 59 1012.1
20260508170806 57 195 10.0 17.0 0.00 0.00 0.00 66 1012.0
20260508165805 56 188 9.0 18.0 0.00 0.00 0.00 69 1012.1
20260508165307 57 187 7.0 18.0 0.00 0.00 0.00 68 1012.1
20260508163805 58 223 9.0 14.0 0.00 0.00 0.00 64 1012.3
20260508161305 63 224 7.0 12.0 0.00 0.00 0.00 42 1012.5
20260508155807 62 256 6.0 13.0 0.00 0.00 0.00 41 1012.5
20260508155306 63 267 3.0 6.0 0.00 0.00 0.00 41 1012.6
20260508154305 62 282 5.0 18.0 0.00 0.00 0.00 44 1012.8
20260508152306 61 307 4.0 9.0 0.00 0.00 0.00 43 1013.0
20260508151805 61 258 5.0 7.0 0.00 0.00 0.00 42 1013.1
20260508151305 60 249 5.0 9.0 0.00 0.00 0.00 45 1013.2
20260508150305 60 245 3.0 5.0 0.00 0.00 0.00 46 1013.2
20260508145806 60 270 2.0 9.0 0.00 0.00 0.00 44 1013.2
20260508145307 60 289 1.0 3.0 0.00 0.00 0.00 44 1013.1
20260508143806 60 335 2.0 3.0 0.00 0.00 0.00 45 1013.1
20260508141805 59 292 2.0 3.0 0.00 0.00 0.00 46 1013.2
20260508140308 59 344 2.0 5.0 0.00 0.00 0.00 48 1013.1
20260508135805 58 342 3.0 7.0 0.00 0.00 0.00 50 1013.2
20260508134307 58 284 2.0 7.0 0.00 0.00 0.00 53 1013.3
20260508133308 57 274 2.0 5.0 0.00 0.00 0.00 54 1013.4
20260508132306 57 316 2.0 3.0 0.00 0.00 0.00 52 1013.3
20260508131804 56 280 2.0 5.0 0.00 0.00 0.00 56 1013.2
20260508131305 56 284 3.0 5.0 0.00 0.00 0.00 55 1013.3
20260508130805 56 279 3.0 6.0 0.00 0.00 0.00 57 1013.3
20260508130305 56 296 2.0 5.0 0.00 0.00 0.00 60 1013.3
20260508124804 55 259 3.0 6.0 0.00 0.00 0.00 67 1013.3
20260508123305 54 274 2.0 3.0 0.00 0.00 0.00 71 1013.3
20260508121305 52 261 2.0 3.0 0.00 0.00 0.00 74 1013.2
20260508120805 52 287 2.0 5.0 0.00 0.00 0.00 74 1013.3
20260508120304 51 294 1.0 3.0 0.00 0.00 0.00 75 1013.3
20260508115306 51 280 2.0 5.0 0.00 0.00 0.00 76 1013.2
20260508114304 51 301 2.0 5.0 0.00 0.00 0.00 76 1013.2
20260508113305 51 280 2.0 5.0 0.00 0.00 0.00 76 1013.0
20260508111305 50 350 3.0 9.0 0.00 0.00 0.00 76 1012.6
20260508110305 50 357 6.0 10.0 0.00 0.00 0.00 76 1012.5
20260508105805 50 352 5.0 10.0 0.00 0.00 0.00 76 1012.5
20260508105306 50 332 5.0 9.0 0.00 0.00 0.00 76 1012.5
20260508104805 50 331 4.0 12.0 0.00 0.00 0.00 77 1012.4
20260508104304 50 352 7.0 12.0 0.00 0.00 0.00 76 1012.4
20260508103804 50 329 6.0 10.0 0.00 0.00 0.00 77 1012.3
20260508102805 50 10 6.0 12.0 0.00 0.00 0.00 78 1012.2
20260508101305 50 338 9.0 15.0 0.00 0.00 0.00 78 1012.1
20260508094805 50 340 8.0 14.0 0.00 0.00 0.00 79 1011.8
20260508093305 50 6 12.0 18.0 0.00 0.00 0.00 78 1011.4
20260508091805 51 350 10.0 18.0 0.00 0.00 0.00 80 1011.2
20260508090805 51 8 10.0 20.0 0.00 0.00 0.00 80 1010.8
20260508090305 51 355 10.0 17.0 0.00 0.00 0.00 82 1010.7
20260508085307 51 351 10.0 17.0 0.00 0.00 0.00 84 1010.6
20260508084805 51 343 9.0 14.0 0.00 0.00 0.00 85 1010.5
20260508083305 51 343 10.0 17.0 0.00 0.00 0.00 87 1010.2
20260508082306 51 319 5.0 12.0 0.00 0.00 0.00 88 1010.0
20260508081805 51 291 5.0 12.0 0.00 0.00 0.00 88 1009.8
20260508075805 51 278 6.0 12.0 0.00 0.00 0.00 87 1009.3
20260508072307 51 270 6.0 10.0 0.00 0.01 0.00 87 1008.7
20260508071805 51 257 6.0 10.0 0.00 0.02 0.00 87 1008.7
20260508071304 51 265 7.0 12.0 0.00 0.07 0.00 86 1008.7
20260508070805 51 264 7.0 12.0 0.00 0.07 0.00 86 1008.7
20260508065805 51 262 10.0 15.0 0.00 0.08 0.00 86 1008.7
20260508064305 51 253 9.0 12.0 0.00 0.12 0.00 86 1008.6
20260508063804 51 258 9.0 14.0 0.00 0.14 0.00 87 1008.6
20260508063305 51 257 9.0 13.0 0.00 0.14 0.00 87 1008.6
20260508062805 51 255 7.0 12.0 0.00 0.14 0.00 87 1008.7
20260508062306 51 259 7.0 12.0 0.00 0.14 0.00 87 1008.7
20260508054804 52 254 10.0 13.0 0.00 0.14 0.00 86 1008.6
20260508053305 52 249 7.0 15.0 0.00 0.14 0.00 85 1008.6
20260508052805 52 259 9.0 13.0 0.00 0.14 0.00 85 1008.6
20260508052307 52 255 9.0 15.0 0.00 0.14 0.00 85 1008.7
20260508050806 53 251 7.0 14.0 0.00 0.14 0.00 86 1008.7
20260508050304 53 241 7.0 13.0 0.00 0.14 0.00 86 1008.7
20260508045805 53 248 9.0 16.0 0.00 0.14 0.00 86 1008.7
20260508044805 53 237 7.0 14.0 0.00 0.14 0.00 86 1008.7
20260508044305 53 242 9.0 14.0 0.00 0.14 0.00 86 1008.7
20260508043305 53 248 9.0 15.0 0.00 0.14 0.00 86 1008.6
20260508040305 54 237 8.0 13.0 0.00 0.14 0.00 87 1008.7
20260508034805 53 234 8.0 12.0 0.00 0.14 0.14 92 1008.8
20260508033804 52 190 5.0 9.0 0.00 0.14 0.14 92 1008.7
20260508033304 52 204 5.0 10.0 0.00 0.14 0.14 92 1008.8
20260508032306 52 195 5.0 10.0 0.00 0.14 0.14 92 1009.0
20260508030805 51 187 6.0 10.0 0.00 0.14 0.14 91 1008.8
20260508025306 51 178 3.0 5.0 0.00 0.14 0.14 90 1008.9
20260508023805 52 190 3.0 8.0 0.00 0.14 0.14 90 1008.9
20260508021805 51 194 5.0 10.0 0.00 0.14 0.14 90 1009.1
20260508021305 51 194 6.0 12.0 0.00 0.14 0.14 89 1009.0
20260508015804 51 196 5.0 12.0 0.00 0.14 0.14 89 1008.9
20260508015306 51 190 4.0 7.0 0.00 0.14 0.14 89 1008.8
20260508012804 52 186 6.0 12.0 0.00 0.14 0.14 88 1008.6
20260508011804 51 191 6.0 12.0 0.00 0.14 0.14 88 1008.6
20260508010804 51 196 6.0 12.0 0.00 0.14 0.14 88 1008.4
20260508004304 52 190 8.0 13.0 0.00 0.14 0.14 88 1008.5
20260508002306 52 201 6.0 10.0 0.00 0.14 0.14 81 1008.1
20260508000804 52 188 5.0 12.0 0.00 0.14 0.14 76 1008.2
20260508000305 52 200 7.0 12.0 0.00 0.14 0.14 74 1008.2